Weather History for Woensdrecht, Netherlands

Change the Weather History Date:

Sunday, October 7, 2012

  Actual Average Record
Temperature  
Mean Temperature 47 °F -  
Max Temperature 59 °F 55 °F 66 °F (1997)
Min Temperature 35 °F 43 °F 33 °F (2002)
Degree Days  
Heating Degree Days 18    
Moisture  
Dew Point 39 °F    
Average Humidity 94    
Maximum Humidity 100    
Minimum Humidity 51    
Precipitation  
Precipitation 0.00 in - - ()
Sea Level Pressure  
Sea Level Pressure 30.07 in    
Wind  
Wind Speed 1 mph ()    
Max Wind Speed 10 mph    
Max Gust Speed -    
Visibility 4.4 miles    
Events Fog    
Averages and records for this station are not official NWS values.
T = Trace of Precipitation, MM = Missing Value Source: Averaged Metar Reports

Daily Weather History Graph

Daily Weather History Graph

Search for Another Location

Airport:

Trip Planner

Search our weather history database for the weather conditions in past years. The results will help you decide how hot, cold, wet, or windy it might be!

Date:

Astronomy

Oct. 07, 2012 Rise Set
Actual Time 7:53 AM CEST 7:06 PM CEST
Civil Twilight 7:20 AM CEST 7:39 PM CEST
Nautical Twilight 6:41 AM CEST 8:17 PM CEST
Astronomical Twilight 6:02 AM CEST 8:56 PM CEST
Moon 11:34 PM CEST (10/7) 2:50 PM CEST (10/7)
Length of Visible Light 12h 19m
Length of Day
11h 12m
Waning Gibbous, 58% of the Moon is Illuminated
Oct 7
Waning Gibbous
Oct 8
Last Quarter
Oct 15
New
Oct 22
First Quarter
Oct 29
Full

Hourly Weather History & Observations

Time (CEST) Temp. Dew Point Humidity Pressure Visibility Wind Dir Wind Speed Gust Speed Precip Events Conditions
12:03 AM 39.2 °F 39.2 °F 100% 29.98 in 5.0 mi ENE 2.3 mph - N/A   Mist
12:13 AM 39.2 °F 39.2 °F 100% 29.98 in - ENE 2.3 mph - N/A   Mist
12:16 AM 39.2 °F 39.2 °F 100% 29.98 in 0.9 mi ENE 1.2 mph - N/A   Mist
12:21 AM 39.2 °F 39.2 °F 100% 29.98 in 3.1 mi ENE 1.2 mph - N/A   Mist
12:25 AM 39.2 °F 39.2 °F 100% 29.98 in 4.3 mi ENE 1.2 mph - N/A   Mist
12:29 AM 39.2 °F 39.2 °F 100% 29.98 in - NE 1.2 mph - N/A   Mist
12:33 AM 39.2 °F 39.2 °F 100% 29.98 in 6.2 mi ENE 1.2 mph - N/A   Unknown
12:43 AM 39.2 °F 39.2 °F 100% 29.98 in 6.2 mi Calm Calm - N/A   Unknown
12:55 AM 39.2 °F 39.2 °F 100% 29.98 in 3.7 mi Calm Calm - N/A   Mist
12:58 AM 39.2 °F 39.2 °F 100% 29.98 in 1.6 mi Calm Calm - N/A   Mist
1:03 AM 39.2 °F 39.2 °F 100% 29.98 in 3.7 mi Calm Calm - N/A   Mist
1:04 AM 39.2 °F 39.2 °F 100% 29.98 in 6.2 mi South 1.2 mph - N/A   Unknown
1:15 AM 39.2 °F 39.2 °F 100% 29.98 in - Calm Calm - N/A   Mist
1:19 AM 37.4 °F 37.4 °F 100% 29.98 in 0.9 mi Calm Calm - N/A   Mist
1:25 AM 37.4 °F 37.4 °F 100% 29.98 in 1.2 mi Calm Calm - N/A   Mist
1:30 AM 37.4 °F 37.4 °F 100% 29.98 in - Calm Calm - N/A   Mist
1:34 AM 39.2 °F 39.2 °F 100% 29.98 in 0.6 mi Calm Calm - N/A   Mist
1:37 AM 39.2 °F 39.2 °F 100% 30.01 in 5.6 mi Calm Calm - N/A   Mist
1:42 AM 39.2 °F 39.2 °F 100% 30.01 in 0.6 mi Calm Calm - N/A   Mist
1:46 AM 39.2 °F 39.2 °F 100% 30.01 in 4.3 mi Calm Calm - N/A   Mist
1:50 AM 37.4 °F 37.4 °F 100% 30.01 in 6.2 mi Calm Calm - N/A   Unknown
1:55 AM 37.4 °F 37.4 °F 100% 30.01 in 6.2 mi Calm Calm - N/A   Partly Cloudy
2:02 AM 39.2 °F 39.2 °F 100% 30.01 in 3.1 mi Calm Calm - N/A   Partly Cloudy
2:07 AM 37.4 °F 37.4 °F 100% 30.01 in 5.0 mi Calm Calm - N/A   Mist
2:11 AM 37.4 °F 37.4 °F 100% 30.01 in - Calm Calm - N/A   Mist
2:15 AM 37.4 °F 37.4 °F 100% 30.01 in 3.1 mi Calm Calm - N/A   Mist
2:25 AM 37.4 °F 37.4 °F 100% 30.01 in 6.2 mi SE 1.2 mph - N/A   Unknown
2:31 AM 37.4 °F 37.4 °F 100% 30.01 in 4.3 mi Calm Calm - N/A   Mist
2:36 AM 37.4 °F 37.4 °F 100% 30.01 in 2.5 mi Calm Calm - N/A   Mist
2:39 AM 37.4 °F 37.4 °F 100% 30.01 in 1.1 mi Calm Calm - N/A   Mist
2:48 AM 37.4 °F 37.4 °F 100% 30.01 in - Calm Calm - N/A Fog Fog
2:55 AM 37.4 °F 37.4 °F 100% 30.01 in 0.8 mi Calm Calm - N/A   Partly Cloudy
2:59 AM 37.4 °F 37.4 °F 100% 30.01 in 1.0 mi Calm Calm - N/A   Mist
3:00 AM 37.4 °F 37.4 °F 100% 30.01 in 0.7 mi Calm Calm - N/A   Mist
3:07 AM 37.4 °F 37.4 °F 100% 30.01 in 1.0 mi Calm Calm - N/A   Mist
3:16 AM 37.4 °F 37.4 °F 100% 30.01 in 2.8 mi Calm Calm - N/A   Mist
3:17 AM 37.4 °F 37.4 °F 100% 30.01 in 5.6 mi Calm Calm - N/A   Mist
3:25 AM 37.4 °F 37.4 °F 100% 30.01 in 6.2 mi Calm Calm - N/A   Unknown
3:29 AM 37.4 °F 37.4 °F 100% 30.01 in 3.1 mi Calm Calm - N/A   Mist
3:34 AM 37.4 °F 37.4 °F 100% 30.01 in 5.6 mi Calm Calm - N/A   Mist
3:42 AM 37.4 °F 37.4 °F 100% 30.01 in 3.1 mi Calm Calm - N/A   Mist
3:48 AM 37.4 °F 37.4 °F 100% 30.01 in 3.7 mi Calm Calm - N/A   Mist
3:55 AM 35.6 °F 35.6 °F 100% 30.01 in - Calm Calm - N/A   Mist
3:59 AM 35.6 °F 35.6 °F 100% 30.01 in 6.2 mi South 1.2 mph - N/A   Unknown
4:03 AM 35.6 °F 35.6 °F 100% 30.01 in 3.7 mi South 1.2 mph - N/A   Mist
4:08 AM 37.4 °F 37.4 °F 100% 30.01 in 1.8 mi South 1.2 mph - N/A   Mist
4:12 AM 35.6 °F 35.6 °F 100% 30.01 in 4.3 mi South 1.2 mph - N/A   Mist
4:16 AM 37.4 °F 35.6 °F 93% 30.01 in 5.0 mi South 1.2 mph - N/A   Mist
4:25 AM 35.6 °F 35.6 °F 100% 30.01 in 5.6 mi SSE 1.2 mph - N/A   Mist
4:29 AM 35.6 °F 35.6 °F 100% 30.01 in 3.1 mi SSE 1.2 mph - N/A   Mist
4:33 AM 37.4 °F 37.4 °F 100% 30.01 in - SSE 1.2 mph - N/A   Mist
4:37 AM 35.6 °F 35.6 °F 100% 30.01 in 5.0 mi Calm Calm - N/A   Partly Cloudy
4:41 AM 35.6 °F 35.6 °F 100% 30.01 in 3.1 mi Calm Calm - N/A   Partly Cloudy
4:45 AM 35.6 °F 35.6 °F 100% 30.01 in 0.8 mi Calm Calm - N/A   Mist
4:51 AM 37.4 °F 37.4 °F 100% 30.01 in 1.1 mi South 1.2 mph - N/A   Mist
4:55 AM 37.4 °F 37.4 °F 100% 30.01 in 3.7 mi South 1.2 mph - N/A   Mist
4:59 AM 37.4 °F 37.4 °F 100% 30.01 in 2.5 mi Calm Calm - N/A   Mist
5:00 AM 37.4 °F 37.4 °F 100% 30.01 in 5.6 mi Calm Calm - N/A   Mist
5:08 AM 35.6 °F 35.6 °F 100% 30.01 in 1.6 mi Calm Calm - N/A   Mist
5:13 AM 35.6 °F 35.6 °F 100% 30.01 in 3.1 mi Calm Calm - N/A   Mist
5:17 AM 35.6 °F 35.6 °F 100% 30.01 in 6.2 mi Calm Calm - N/A   Unknown
5:25 AM 35.6 °F 35.6 °F 100% 30.01 in 6.2 mi South 1.2 mph - N/A   Unknown
5:31 AM 35.6 °F 35.6 °F 100% 30.01 in 1.9 mi South 1.2 mph - N/A   Mist
5:35 AM 35.6 °F 35.6 °F 100% 30.01 in - Calm Calm - N/A   Mist
5:39 AM 35.6 °F 35.6 °F 100% 30.01 in 6.2 mi Calm Calm - N/A   Unknown
5:48 AM 35.6 °F 35.6 °F 100% 30.01 in 1.2 mi Calm Calm - N/A   Mist
5:55 AM 35.6 °F 35.6 °F 100% 30.01 in 6.2 mi Calm Calm - N/A   Partly Cloudy
6:08 AM 35.6 °F 35.6 °F 100% 30.04 in 3.7 mi Calm Calm - N/A   Partly Cloudy
6:12 AM 35.6 °F 35.6 °F 100% 30.04 in - Calm Calm - N/A   Partly Cloudy
6:16 AM 35.6 °F 35.6 °F 100% 30.04 in 3.7 mi SSW 1.2 mph - N/A   Mist
6:18 AM 35.6 °F 35.6 °F 100% 30.04 in 6.2 mi South 1.2 mph - N/A   Unknown
6:25 AM 35.6 °F 35.6 °F 100% 30.04 in - Calm Calm - N/A   Mist
6:28 AM 35.6 °F 35.6 °F 100% 30.04 in - South 1.2 mph - N/A   Mist
6:30 AM 35.6 °F 35.6 °F 100% 30.04 in 5.0 mi South 1.2 mph - N/A   Mist
6:44 AM 35.6 °F 35.6 °F 100% 30.04 in 3.1 mi Calm Calm - N/A   Mist
6:51 AM 35.6 °F 35.6 °F 100% 30.04 in 6.2 mi Calm Calm - N/A   Unknown
6:55 AM 35.6 °F 35.6 °F 100% 30.04 in 3.7 mi Calm Calm - N/A   Mist
6:58 AM 35.6 °F 35.6 °F 100% 30.04 in - Calm Calm - N/A   Mist
7:01 AM 35.6 °F 35.6 °F 100% 30.04 in 0.7 mi Calm Calm - N/A   Mist
7:10 AM 35.6 °F 35.6 °F 100% 30.04 in 1.0 mi Calm Calm - N/A   Mist
7:13 AM 35.6 °F 35.6 °F 100% 30.04 in 3.1 mi Calm Calm - N/A   Mist
7:25 AM 35.6 °F 35.6 °F 100% 30.04 in 4.3 mi Calm Calm - N/A   Mist
7:30 AM 35.6 °F 35.6 °F 100% 30.04 in - South 1.2 mph - N/A   Mist
7:31 AM 35.6 °F 35.6 °F 100% 30.04 in 3.1 mi South 1.2 mph - N/A   Mist
7:37 AM 35.6 °F 35.6 °F 100% 30.04 in 5.6 mi South 1.2 mph - N/A   Mist
7:44 AM 35.6 °F 35.6 °F 100% 30.06 in 4.3 mi South 1.2 mph - N/A   Mist
7:46 AM 35.6 °F 35.6 °F 100% 30.06 in 6.2 mi SSE 1.2 mph - N/A   Unknown
7:55 AM 35.6 °F 35.6 °F 100% 30.06 in 1.4 mi SSE 1.2 mph - N/A   Mist
7:58 AM 35.6 °F 35.6 °F 100% 30.06 in 2.5 mi South 1.2 mph - N/A   Mist
8:03 AM 35.6 °F 35.6 °F 100% 30.06 in 1.6 mi South 1.2 mph - N/A   Mist
8:05 AM 35.6 °F 35.6 °F 100% 30.06 in 5.0 mi South 1.2 mph - N/A   Mist
8:18 AM 35.6 °F 35.6 °F 100% 30.06 in - Calm Calm - N/A   Mist
8:25 AM 35.6 °F 35.6 °F 100% 30.06 in 1.5 mi Calm Calm - N/A   Mist
8:33 AM 37.4 °F 37.4 °F 100% 30.06 in - SSE 1.2 mph - N/A   Mist
8:35 AM 37.4 °F 37.4 °F 100% 30.06 in 6.2 mi SSE 1.2 mph - N/A   Unknown
8:44 AM 37.4 °F 37.4 °F 100% 30.06 in 3.1 mi South 1.2 mph - N/A   Mist
8:47 AM 39.2 °F 39.2 °F 100% 30.06 in 5.0 mi SSE 1.2 mph - N/A   Mist
8:55 AM 37.4 °F 37.4 °F 100% 30.06 in 5.6 mi South 1.2 mph - N/A   Mist
8:58 AM 39.2 °F 39.2 °F 100% 30.09 in - Calm Calm - N/A   Mist
9:02 AM 39.2 °F 39.2 °F 100% 30.09 in - Calm Calm - N/A   Mist
9:08 AM 41.0 °F 41.0 °F 100% 30.09 in 3.1 mi Calm Calm - N/A   Mist
9:18 AM 41.0 °F 41.0 °F 100% 30.09 in - Calm Calm - N/A   Mist
9:25 AM 42.8 °F 42.8 °F 100% 30.09 in 5.6 mi Calm Calm - N/A   Mist
9:39 AM 46.4 °F 46.4 °F 100% 30.09 in 6.2 mi Calm Calm - N/A   Unknown
9:55 AM 48.2 °F 48.2 °F 100% 30.09 in 6.2 mi Calm Calm - N/A   Unknown
10:25 AM 53.6 °F 48.2 °F 82% 30.12 in 6.2 mi North 4.6 mph - N/A   Unknown
10:55 AM 55.4 °F 46.4 °F 72% 30.12 in 6.2 mi NNE 4.6 mph - N/A   Unknown
11:25 AM 55.4 °F 46.4 °F 72% 30.12 in 6.2 mi NNE 5.8 mph - N/A   Unknown
11:55 AM 57.2 °F 44.6 °F 63% 30.15 in 6.2 mi North 6.9 mph - N/A   Partly Cloudy
12:25 PM 57.2 °F 41.0 °F 55% 30.15 in 6.2 mi North 8.1 mph - N/A   Partly Cloudy
12:55 PM 57.2 °F 41.0 °F 55% 30.15 in 6.2 mi North 8.1 mph - N/A   Scattered Clouds
1:25 PM 57.2 °F 42.8 °F 59% 30.18 in 6.2 mi NNW 9.2 mph - N/A   Scattered Clouds
1:55 PM 57.2 °F 41.0 °F 55% 30.18 in 6.2 mi North 8.1 mph - N/A   Scattered Clouds
2:25 PM 57.2 °F 41.0 °F 55% 30.18 in 6.2 mi NW 6.9 mph - N/A   Partly Cloudy
2:55 PM 57.2 °F 41.0 °F 55% 30.18 in 6.2 mi NNW 8.1 mph - N/A   Mostly Cloudy
3:25 PM 59.0 °F 41.0 °F 51% 30.18 in 6.2 mi NW 10.4 mph - N/A   Mostly Cloudy
3:55 PM 57.2 °F 39.2 °F 51% 30.18 in 6.2 mi NW 9.2 mph - N/A   Scattered Clouds
4:25 PM 57.2 °F 41.0 °F 55% 30.18 in 6.2 mi NW 8.1 mph - N/A   Unknown
4:55 PM 57.2 °F 41.0 °F 55% 30.18 in 6.2 mi North 4.6 mph - N/A   Unknown
5:25 PM 57.2 °F 41.0 °F 55% 30.21 in 6.2 mi NNW 4.6 mph - N/A   Unknown
5:55 PM 57.2 °F 41.0 °F 55% 30.21 in 6.2 mi NNW 4.6 mph - N/A   Unknown
6:25 PM 55.4 °F 41.0 °F 58% 30.21 in 6.2 mi NNW 3.5 mph - N/A   Unknown
6:29 PM 55.4 °F 41.0 °F 58% 30.21 in 3.7 mi NNW 2.3 mph - N/A   Haze
6:35 PM 53.6 °F 42.8 °F 67% 30.21 in 6.2 mi NNW 2.3 mph - N/A   Unknown
6:37 PM 51.8 °F 44.6 °F 76% 30.21 in 3.1 mi NNW 1.2 mph - N/A   Haze
6:40 PM 51.8 °F 46.4 °F 82% 30.21 in 6.2 mi North 1.2 mph - N/A   Unknown
6:55 PM 50.0 °F 44.6 °F 82% 30.21 in 6.2 mi Calm Calm - N/A   Unknown
7:07 PM 48.2 °F 44.6 °F 87% 30.21 in - Calm Calm - N/A   Mist
7:13 PM 48.2 °F 44.6 °F 87% 30.21 in 6.2 mi Calm Calm - N/A   Unknown
7:25 PM 46.4 °F 42.8 °F 87% 30.21 in 6.2 mi Calm Calm - N/A   Unknown
7:55 PM 44.6 °F 42.8 °F 93% 30.21 in 6.2 mi Calm Calm - N/A   Unknown
8:25 PM 42.8 °F 42.8 °F 100% 30.21 in 6.2 mi WSW 1.2 mph - N/A   Partly Cloudy
8:55 PM 42.8 °F 42.8 °F 100% 30.21 in 6.2 mi Calm Calm - N/A   Partly Cloudy
9:25 PM 42.8 °F 41.0 °F 93% 30.24 in 6.2 mi ENE 1.2 mph - N/A   Scattered Clouds
9:55 PM 41.0 °F 41.0 °F 100% 30.21 in 6.2 mi ENE 2.3 mph - N/A   Mostly Cloudy
10:18 PM 41.0 °F 39.2 °F 93% 30.21 in 2.2 mi East 1.2 mph - N/A   Scattered Clouds
10:25 PM 41.0 °F 41.0 °F 100% 30.21 in - East 1.2 mph - N/A   Mostly Cloudy
10:26 PM 41.0 °F 41.0 °F 100% 30.24 in 6.2 mi Calm Calm - N/A   Mostly Cloudy
10:42 PM 41.0 °F 39.2 °F 93% 30.24 in 6.2 mi Calm Calm - N/A   Unknown
10:55 PM 41.0 °F 39.2 °F 93% 30.24 in 6.2 mi Calm Calm - N/A   Unknown
11:25 PM 39.2 °F 39.2 °F 100% 30.24 in 6.2 mi Calm Calm - N/A   Unknown
11:55 PM 37.4 °F 37.4 °F 100% 30.24 in 6.2 mi ENE 2.3 mph - N/A   Unknown